Zurück zum Katalog

STARLINK-35578

AktivKommunikationVLEO
NORAD 66168·PAYLOAD·🇺🇸 United States

Gestartet Oct 25, 2025 von Cape Canaveral Space Force Station

Loading…

Nächste Überflüge (nächste 24 Stunden)

TLE

AktuellSource: CelesTrak SupGP

Epoche: Sep 14, 2026, 22:37 UTC

1 66168C 25240Y   26257.94284722  .00043524  00000+0  12859-2 0  2571
2 66168  53.1565 261.3953 0001303  89.8504  31.8509 15.34370046    14

Verfolge STARLINK-35578 in Echtzeit mit AllMySat

Download on the App Store